Wetterdaten: Samstag, 01.08.2015
Datum Zeit Temp. A. Feuchte A. Luftdruck Regen Wind Richtung Richtung Sonnenschein ET UV Solar Taupunkt Windchill Windben Empfang
01.08.2015 00:01 15,7 C 55 % 1014,0 hPa 0,0 l/m 0,0 km/h (0 Bft) O 91 0 min 0,000 mm 0,0 UV-I 0 W/m 6,7 C 15,7 C 0,0 km/h (0 Bft) 0,00 %
01.08.2015 00:06 15,7 C 55 % 1014,0 hPa 0,0 l/m 0,0 km/h (0 Bft) NO 43 0 min 0,000 mm 0,0 UV-I 0 W/m 6,7 C 15,7 C 0,0 km/h (0 Bft) 0,00 %
01.08.2015 00:11 15,6 C 55 % 1013,8 hPa 0,0 l/m 0,0 km/h (0 Bft) NO 47 0 min 0,000 mm 0,0 UV-I 0 W/m 6,6 C 15,6 C 0,0 km/h (0 Bft) 0,00 %
01.08.2015 00:16 15,6 C 55 % 1013,9 hPa 0,0 l/m 0,0 km/h (0 Bft) O 98 0 min 0,000 mm 0,0 UV-I 0 W/m 6,6 C 15,6 C 0,0 km/h (0 Bft) 0,00 %
01.08.2015 00:21 15,6 C 57 % 1013,9 hPa 0,0 l/m 0,0 km/h (0 Bft) O-NO 71 0 min 0,000 mm 0,0 UV-I 0 W/m 7,1 C 15,6 C 0,0 km/h (0 Bft) 0,00 %
01.08.2015 00:26 15,5 C 59 % 1013,7 hPa 0,0 l/m 0,0 km/h (0 Bft) O-NO 70 0 min 0,000 mm 0,0 UV-I 0 W/m 7,5 C 15,5 C 0,0 km/h (0 Bft) 0,00 %
01.08.2015 00:31 15,3 C 59 % 1013,7 hPa 0,0 l/m 0,0 km/h (0 Bft) O-NO 76 0 min 0,000 mm 0,0 UV-I 0 W/m 7,3 C 15,3 C 0,0 km/h (0 Bft) 0,00 %
01.08.2015 00:36 15,2 C 60 % 1013,7 hPa 0,0 l/m 0,0 km/h (0 Bft) O 82 0 min 0,000 mm 0,0 UV-I 0 W/m 7,5 C 15,2 C 0,0 km/h (0 Bft) 0,00 %
01.08.2015 00:41 15,0 C 61 % 1013,7 hPa 0,0 l/m 0,0 km/h (0 Bft) NO 46 0 min 0,000 mm 0,0 UV-I 0 W/m 7,5 C 15,0 C 0,0 km/h (0 Bft) 0,00 %
01.08.2015 00:46 14,8 C 61 % 1013,7 hPa 0,0 l/m 0,0 km/h (0 Bft) NO 55 0 min 0,000 mm 0,0 UV-I 0 W/m 7,4 C 14,8 C 0,0 km/h (0 Bft) 0,00 %
01.08.2015 00:51 14,7 C 62 % 1013,7 hPa 0,0 l/m 0,0 km/h (0 Bft) NO 53 0 min 0,000 mm 0,0 UV-I 0 W/m 7,5 C 14,7 C 0,0 km/h (0 Bft) 0,00 %
01.08.2015 00:56 14,6 C 62 % 1013,6 hPa 0,0 l/m 0,0 km/h (0 Bft) NO 50 0 min 0,000 mm 0,0 UV-I 0 W/m 7,4 C 14,6 C 0,0 km/h (0 Bft) 0,00 %
01.08.2015 01:01 14,5 C 63 % 1013,6 hPa 0,0 l/m 0,0 km/h (0 Bft) NO 56 0 min 0,000 mm 0,0 UV-I 0 W/m 7,5 C 14,5 C 0,0 km/h (0 Bft) 0,00 %
01.08.2015 01:06 14,5 C 64 % 1013,4 hPa 0,0 l/m 0,0 km/h (0 Bft) O-NO 60 0 min 0,000 mm 0,0 UV-I 0 W/m 7,8 C 14,5 C 0,0 km/h (0 Bft) 0,00 %
01.08.2015 01:11 14,4 C 64 % 1013,4 hPa 0,0 l/m 0,0 km/h (0 Bft) NO 40 0 min 0,000 mm 0,0 UV-I 0 W/m 7,7 C 14,4 C 0,0 km/h (0 Bft) 0,00 %
01.08.2015 01:16 14,2 C 65 % 1013,3 hPa 0,0 l/m 0,0 km/h (0 Bft) NO 41 0 min 0,000 mm 0,0 UV-I 0 W/m 7,7 C 14,2 C 0,0 km/h (0 Bft) 0,00 %
01.08.2015 01:21 14,0 C 67 % 1013,1 hPa 0,0 l/m 0,0 km/h (0 Bft) NO 53 0 min 0,000 mm 0,0 UV-I 0 W/m 8,0 C 14,0 C 0,0 km/h (0 Bft) 0,00 %
01.08.2015 01:26 13,9 C 68 % 1013,3 hPa 0,0 l/m 0,0 km/h (0 Bft) NO 54 0 min 0,000 mm 0,0 UV-I 0 W/m 8,1 C 13,9 C 0,0 km/h (0 Bft) 0,00 %
01.08.2015 01:31 13,6 C 68 % 1013,3 hPa 0,0 l/m 0,0 km/h (0 Bft) NO 56 0 min 0,000 mm 0,0 UV-I 0 W/m 7,8 C 13,6 C 0,0 km/h (0 Bft) 0,00 %
01.08.2015 01:36 13,5 C 69 % 1013,3 hPa 0,0 l/m 0,0 km/h (0 Bft) O 83 0 min 0,000 mm 0,0 UV-I 0 W/m 7,9 C 13,5 C 0,0 km/h (0 Bft) 0,00 %
01.08.2015 01:41 13,4 C 70 % 1013,3 hPa 0,0 l/m 0,0 km/h (0 Bft) NO 51 0 min 0,000 mm 0,0 UV-I 0 W/m 8,0 C 13,4 C 0,0 km/h (0 Bft) 0,00 %
01.08.2015 01:46 13,4 C 70 % 1013,3 hPa 0,0 l/m 0,0 km/h (0 Bft) O-NO 58 0 min 0,000 mm 0,0 UV-I 0 W/m 8,0 C 13,4 C 0,0 km/h (0 Bft) 0,00 %
01.08.2015 01:51 13,5 C 70 % 1013,5 hPa 0,0 l/m 0,0 km/h (0 Bft) NO 51 0 min 0,000 mm 0,0 UV-I 0 W/m 8,1 C 13,5 C 0,0 km/h (0 Bft) 0,00 %
01.08.2015 01:56 13,5 C 69 % 1013,4 hPa 0,0 l/m 0,0 km/h (0 Bft) NO 49 0 min 0,000 mm 0,0 UV-I 0 W/m 7,9 C 13,5 C 0,0 km/h (0 Bft) 0,00 %
01.08.2015 02:01 13,6 C 69 % 1013,4 hPa 0,0 l/m 0,0 km/h (0 Bft) NO 54 0 min 0,000 mm 0,0 UV-I 0 W/m 8,0 C 13,6 C 0,0 km/h (0 Bft) 0,00 %
01.08.2015 02:06 13,6 C 70 % 1013,3 hPa 0,0 l/m 0,0 km/h (0 Bft) NO 56 0 min 0,000 mm 0,0 UV-I 0 W/m 8,2 C 13,6 C 0,0 km/h (0 Bft) 0,00 %
01.08.2015 02:11 13,7 C 70 % 1013,3 hPa 0,0 l/m 0,0 km/h (0 Bft) NO 39 0 min 0,000 mm 0,0 UV-I 0 W/m 8,3 C 13,7 C 0,0 km/h (0 Bft) 0,00 %
01.08.2015 02:16 13,7 C 70 % 1013,3 hPa 0,0 l/m 0,0 km/h (0 Bft) NO 51 0 min 0,000 mm 0,0 UV-I 0 W/m 8,3 C 13,7 C 0,0 km/h (0 Bft) 0,00 %
01.08.2015 02:21 13,7 C 69 % 1013,4 hPa 0,0 l/m 0,0 km/h (0 Bft) NO 47 0 min 0,000 mm 0,0 UV-I 0 W/m 8,1 C 13,7 C 0,0 km/h (0 Bft) 0,00 %
01.08.2015 02:26 13,7 C 68 % 1013,4 hPa 0,0 l/m 0,0 km/h (0 Bft) NO 36 0 min 0,000 mm 0,0 UV-I 0 W/m 7,9 C 13,7 C 0,0 km/h (0 Bft) 0,00 %
01.08.2015 02:31 13,8 C 69 % 1013,3 hPa 0,0 l/m 0,0 km/h (0 Bft) NO 46 0 min 0,000 mm 0,0 UV-I 0 W/m 8,2 C 13,8 C 0,0 km/h (0 Bft) 0,00 %
01.08.2015 02:36 13,7 C 69 % 1013,6 hPa 0,0 l/m 0,0 km/h (0 Bft) NO 41 0 min 0,000 mm 0,0 UV-I 0 W/m 8,1 C 13,7 C 0,0 km/h (0 Bft) 0,00 %
01.08.2015 02:41 13,4 C 71 % 1013,5 hPa 0,0 l/m 0,0 km/h (0 Bft) NO 44 0 min 0,000 mm 0,0 UV-I 0 W/m 8,3 C 13,4 C 0,0 km/h (0 Bft) 0,00 %
01.08.2015 02:46 13,0 C 72 % 1013,8 hPa 0,0 l/m 0,0 km/h (0 Bft) NO 39 0 min 0,000 mm 0,0 UV-I 0 W/m 8,1 C 13,0 C 0,0 km/h (0 Bft) 0,00 %
01.08.2015 02:51 12,8 C 72 % 1013,7 hPa 0,0 l/m 0,0 km/h (0 Bft) NO 44 0 min 0,000 mm 0,0 UV-I 0 W/m 7,9 C 12,8 C 0,0 km/h (0 Bft) 0,00 %
01.08.2015 02:56 12,7 C 72 % 1013,7 hPa 0,0 l/m 0,0 km/h (0 Bft) NO 56 0 min 0,000 mm 0,0 UV-I 0 W/m 7,8 C 12,7 C 0,0 km/h (0 Bft) 0,00 %
01.08.2015 03:01 12,6 C 73 % 1013,5 hPa 0,0 l/m 0,0 km/h (0 Bft) O-NO 62 0 min 0,000 mm 0,0 UV-I 0 W/m 7,9 C 12,6 C 0,0 km/h (0 Bft) 0,00 %
01.08.2015 03:06 12,5 C 74 % 1013,6 hPa 0,0 l/m 0,0 km/h (0 Bft) O-NO 72 0 min 0,000 mm 0,0 UV-I 0 W/m 8,0 C 12,5 C 0,0 km/h (0 Bft) 0,00 %
01.08.2015 03:11 12,4 C 74 % 1013,5 hPa 0,0 l/m 0,0 km/h (0 Bft) O-NO 76 0 min 0,000 mm 0,0 UV-I 0 W/m 7,9 C 12,4 C 0,0 km/h (0 Bft) 0,00 %
01.08.2015 03:16 12,3 C 73 % 1013,7 hPa 0,0 l/m 0,0 km/h (0 Bft) NO 55 0 min 0,000 mm 0,0 UV-I 0 W/m 7,6 C 12,3 C 0,0 km/h (0 Bft) 0,00 %
01.08.2015 03:21 12,3 C 73 % 1013,6 hPa 0,0 l/m 0,0 km/h (0 Bft) NO 35 0 min 0,000 mm 0,0 UV-I 0 W/m 7,6 C 12,3 C 0,0 km/h (0 Bft) 0,00 %
01.08.2015 03:26 12,4 C 74 % 1013,5 hPa 0,0 l/m 0,0 km/h (0 Bft) NO 54 0 min 0,000 mm 0,0 UV-I 0 W/m 7,9 C 12,4 C 0,0 km/h (0 Bft) 0,00 %
01.08.2015 03:31 12,4 C 73 % 1013,4 hPa 0,0 l/m 0,0 km/h (0 Bft) NO 56 0 min 0,000 mm 0,0 UV-I 0 W/m 7,7 C 12,4 C 0,0 km/h (0 Bft) 0,00 %
01.08.2015 03:36 12,5 C 74 % 1013,5 hPa 0,0 l/m 0,0 km/h (0 Bft) O-NO 61 0 min 0,000 mm 0,0 UV-I 0 W/m 8,0 C 12,5 C 0,0 km/h (0 Bft) 0,00 %
01.08.2015 03:41 12,5 C 73 % 1013,6 hPa 0,0 l/m 0,0 km/h (0 Bft) O-NO 59 0 min 0,000 mm 0,0 UV-I 0 W/m 7,8 C 12,5 C 0,0 km/h (0 Bft) 0,00 %
01.08.2015 03:46 12,4 C 73 % 1013,5 hPa 0,0 l/m 0,0 km/h (0 Bft) O-NO 65 0 min 0,000 mm 0,0 UV-I 0 W/m 7,7 C 12,4 C 0,0 km/h (0 Bft) 0,00 %
01.08.2015 03:51 12,3 C 74 % 1013,3 hPa 0,0 l/m 0,0 km/h (0 Bft) NO 50 0 min 0,000 mm 0,0 UV-I 0 W/m 7,8 C 12,3 C 0,0 km/h (0 Bft) 0,00 %
01.08.2015 03:56 12,2 C 74 % 1013,5 hPa 0,0 l/m 0,0 km/h (0 Bft) O 81 0 min 0,000 mm 0,0 UV-I 0 W/m 7,7 C 12,2 C 0,0 km/h (0 Bft) 0,00 %
01.08.2015 04:01 12,2 C 74 % 1013,5 hPa 0,0 l/m 0,0 km/h (0 Bft) O-NO 64 0 min 0,000 mm 0,0 UV-I 0 W/m 7,7 C 12,2 C 0,0 km/h (0 Bft) 0,00 %
01.08.2015 04:06 12,1 C 74 % 1013,4 hPa 0,0 l/m 0,0 km/h (0 Bft) O 97 0 min 0,000 mm 0,0 UV-I 0 W/m 7,6 C 12,1 C 0,0 km/h (0 Bft) 0,00 %
01.08.2015 04:11 12,0 C 74 % 1013,4 hPa 0,0 l/m 0,0 km/h (0 Bft) O 95 0 min 0,000 mm 0,0 UV-I 0 W/m 7,5 C 12,0 C 0,0 km/h (0 Bft) 0,00 %
01.08.2015 04:16 12,0 C 74 % 1013,3 hPa 0,0 l/m 0,0 km/h (0 Bft) O-NO 73 0 min 0,000 mm 0,0 UV-I 0 W/m 7,5 C 12,0 C 0,0 km/h (0 Bft) 0,00 %
01.08.2015 04:21 12,0 C 75 % 1013,5 hPa 0,0 l/m 0,0 km/h (0 Bft) NO 54 0 min 0,000 mm 0,0 UV-I 0 W/m 7,7 C 12,0 C 0,0 km/h (0 Bft) 0,00 %
01.08.2015 04:26 12,0 C 75 % 1013,4 hPa 0,0 l/m 0,0 km/h (0 Bft) O-NO 70 0 min 0,000 mm 0,0 UV-I 0 W/m 7,7 C 12,0 C 0,0 km/h (0 Bft) 0,00 %
01.08.2015 04:31 12,0 C 75 % 1013,2 hPa 0,0 l/m 0,0 km/h (0 Bft) O 100 0 min 0,000 mm 0,0 UV-I 0 W/m 7,7 C 12,0 C 0,0 km/h (0 Bft) 0,00 %
01.08.2015 04:36 12,0 C 75 % 1013,2 hPa 0,0 l/m 0,0 km/h (0 Bft) O-NO 71 0 min 0,000 mm 0,0 UV-I 0 W/m 7,7 C 12,0 C 0,0 km/h (0 Bft) 0,00 %
01.08.2015 04:41 12,0 C 75 % 1013,2 hPa 0,0 l/m 0,0 km/h (0 Bft) NO 53 0 min 0,000 mm 0,0 UV-I 0 W/m 7,7 C 12,0 C 0,0 km/h (0 Bft) 0,00 %
01.08.2015 04:46 12,0 C 78 % 1013,3 hPa 0,0 l/m 0,0 km/h (0 Bft) O-NO 61 0 min 0,000 mm 0,0 UV-I 0 W/m 8,3 C 12,0 C 0,0 km/h (0 Bft) 0,00 %
01.08.2015 04:51 11,9 C 78 % 1013,4 hPa 0,0 l/m 0,0 km/h (0 Bft) O-SO 111 0 min 0,000 mm 0,0 UV-I 0 W/m 8,2 C 11,9 C 0,0 km/h (0 Bft) 0,00 %
01.08.2015 04:56 11,8 C 78 % 1013,2 hPa 0,0 l/m 0,0 km/h (0 Bft) NO 55 0 min 0,000 mm 0,0 UV-I 0 W/m 8,1 C 11,8 C 0,0 km/h (0 Bft) 0,00 %
01.08.2015 05:01 11,7 C 78 % 1013,3 hPa 0,0 l/m 0,0 km/h (0 Bft) NO 56 0 min 0,000 mm 0,0 UV-I 0 W/m 8,0 C 11,7 C 0,0 km/h (0 Bft) 0,00 %
01.08.2015 05:06 11,6 C 78 % 1013,5 hPa 0,0 l/m 0,0 km/h (0 Bft) O-NO 72 0 min 0,000 mm 0,0 UV-I 0 W/m 7,9 C 11,6 C 0,0 km/h (0 Bft) 0,00 %
01.08.2015 05:11 11,4 C 78 % 1013,1 hPa 0,0 l/m 0,0 km/h (0 Bft) O-NO 75 0 min 0,000 mm 0,0 UV-I 0 W/m 7,7 C 11,4 C 0,0 km/h (0 Bft) 0,00 %
01.08.2015 05:16 11,3 C 78 % 1013,0 hPa 0,0 l/m 0,0 km/h (0 Bft) NO 54 0 min 0,000 mm 0,0 UV-I 0 W/m 7,6 C 11,3 C 0,0 km/h (0 Bft) 0,00 %
01.08.2015 05:21 11,2 C 79 % 1012,9 hPa 0,0 l/m 0,0 km/h (0 Bft) NO 56 0 min 0,000 mm 0,0 UV-I 0 W/m 7,7 C 11,2 C 0,0 km/h (0 Bft) 0,00 %
01.08.2015 05:26 11,1 C 79 % 1012,9 hPa 0,0 l/m 0,0 km/h (0 Bft) NO 50 0 min 0,000 mm 0,0 UV-I 0 W/m 7,6 C 11,1 C 0,0 km/h (0 Bft) 0,00 %
01.08.2015 05:31 11,1 C 79 % 1013,0 hPa 0,0 l/m 0,0 km/h (0 Bft) O-NO 60 0 min 0,000 mm 0,0 UV-I 0 W/m 7,6 C 11,1 C 0,0 km/h (0 Bft) 0,00 %
01.08.2015 05:36 11,0 C 79 % 1013,1 hPa 0,0 l/m 0,0 km/h (0 Bft) O 79 0 min 0,000 mm 0,0 UV-I 0 W/m 7,5 C 11,0 C 0,0 km/h (0 Bft) 0,00 %
01.08.2015 05:41 11,0 C 79 % 1013,2 hPa 0,0 l/m 0,0 km/h (0 Bft) O-NO 77 0 min 0,000 mm 0,0 UV-I 0 W/m 7,5 C 11,0 C 0,0 km/h (0 Bft) 0,00 %
01.08.2015 05:46 11,0 C 79 % 1013,0 hPa 0,0 l/m 0,0 km/h (0 Bft) NO 55 0 min 0,000 mm 0,0 UV-I 5 W/m 7,5 C 11,0 C 0,0 km/h (0 Bft) 0,00 %
01.08.2015 05:51 11,0 C 79 % 1013,2 hPa 0,0 l/m 0,0 km/h (0 Bft) NO 47 5 min 0,000 mm 0,0 UV-I 10 W/m 7,5 C 11,0 C 0,0 km/h (0 Bft) 0,00 %
01.08.2015 05:56 10,9 C 80 % 1013,2 hPa 0,0 l/m 0,0 km/h (0 Bft) O-NO 68 5 min 0,000 mm 0,0 UV-I 20 W/m 7,6 C 10,9 C 0,0 km/h (0 Bft) 0,00 %
01.08.2015 06:01 10,9 C 80 % 1013,2 hPa 0,0 l/m 0,0 km/h (0 Bft) NO 48 5 min 0,000 mm 0,0 UV-I 26 W/m 7,6 C 10,9 C 0,0 km/h (0 Bft) 0,00 %
01.08.2015 06:06 10,9 C 80 % 1013,3 hPa 0,0 l/m 0,0 km/h (0 Bft) NO 39 5 min 0,000 mm 0,0 UV-I 48 W/m 7,6 C 10,9 C 0,0 km/h (0 Bft) 0,00 %
01.08.2015 06:11 10,9 C 80 % 1013,5 hPa 0,0 l/m 0,0 km/h (0 Bft) NO 44 5 min 0,000 mm 0,0 UV-I 75 W/m 7,6 C 10,9 C 0,0 km/h (0 Bft) 0,00 %
01.08.2015 06:16 11,2 C 80 % 1013,4 hPa 0,0 l/m 0,0 km/h (0 Bft) NO 38 5 min 0,000 mm 0,0 UV-I 68 W/m 7,9 C 11,2 C 0,0 km/h (0 Bft) 0,00 %
01.08.2015 06:21 11,6 C 79 % 1013,3 hPa 0,0 l/m 0,0 km/h (0 Bft) NO 51 5 min 0,000 mm 0,0 UV-I 128 W/m 8,1 C 11,6 C 0,0 km/h (0 Bft) 0,00 %
01.08.2015 06:26 12,1 C 78 % 1013,4 hPa 0,0 l/m 0,0 km/h (0 Bft) N-NO 33 5 min 0,000 mm 0,0 UV-I 65 W/m 8,4 C 12,1 C 0,0 km/h (0 Bft) 0,00 %
01.08.2015 06:31 12,4 C 76 % 1013,5 hPa 0,0 l/m 0,0 km/h (0 Bft) NO 41 5 min 0,000 mm 0,0 UV-I 107 W/m 8,3 C 12,4 C 0,0 km/h (0 Bft) 0,00 %
01.08.2015 06:36 12,7 C 74 % 1013,4 hPa 0,0 l/m 0,0 km/h (0 Bft) NO 46 5 min 0,000 mm 0,0 UV-I 151 W/m 8,2 C 12,7 C 0,0 km/h (0 Bft) 0,00 %
01.08.2015 06:41 13,0 C 74 % 1013,6 hPa 0,0 l/m 0,0 km/h (0 Bft) NO 44 5 min 0,000 mm 0,0 UV-I 212 W/m 8,5 C 13,0 C 0,0 km/h (0 Bft) 0,00 %
01.08.2015 06:46 13,6 C 72 % 1013,5 hPa 0,0 l/m 0,0 km/h (0 Bft) NO 45 5 min 0,000 mm 0,0 UV-I 228 W/m 8,6 C 13,6 C 0,0 km/h (0 Bft) 0,00 %
01.08.2015 06:51 14,3 C 68 % 1013,7 hPa 0,0 l/m 0,0 km/h (0 Bft) NO 44 5 min 0,000 mm 0,0 UV-I 255 W/m 8,5 C 14,3 C 0,0 km/h (0 Bft) 0,00 %
01.08.2015 06:56 14,9 C 65 % 1013,5 hPa 0,0 l/m 0,0 km/h (0 Bft) N-NO 20 5 min 0,000 mm 0,0 UV-I 289 W/m 8,4 C 14,9 C 0,0 km/h (0 Bft) 0,00 %
01.08.2015 07:01 15,4 C 63 % 1013,6 hPa 0,0 l/m 0,0 km/h (0 Bft) NO 36 5 min 0,000 mm 1,0 UV-I 304 W/m 8,4 C 15,4 C 0,0 km/h (0 Bft) 0,00 %
01.08.2015 07:06 15,9 C 60 % 1013,7 hPa 0,0 l/m 0,0 km/h (0 Bft) N-NO 30 5 min 0,000 mm 1,0 UV-I 149 W/m 8,1 C 15,9 C 0,0 km/h (0 Bft) 0,00 %
01.08.2015 07:11 16,2 C 60 % 1013,7 hPa 0,0 l/m 0,0 km/h (0 Bft) NO 48 5 min 0,000 mm 1,0 UV-I 198 W/m 8,4 C 16,2 C 0,0 km/h (0 Bft) 0,00 %
01.08.2015 07:16 16,4 C 60 % 1013,6 hPa 0,0 l/m 0,0 km/h (0 Bft) NO 46 5 min 0,000 mm 1,0 UV-I 320 W/m 8,6 C 16,4 C 0,0 km/h (0 Bft) 0,00 %
01.08.2015 07:21 16,9 C 59 % 1013,5 hPa 0,0 l/m 0,0 km/h (0 Bft) O-NO 69 5 min 0,000 mm 1,0 UV-I 314 W/m 8,8 C 16,9 C 0,0 km/h (0 Bft) 0,00 %
01.08.2015 07:26 17,5 C 53 % 1013,5 hPa 0,0 l/m 0,0 km/h (0 Bft) O-SO 117 5 min 0,000 mm 1,0 UV-I 326 W/m 7,8 C 17,5 C 0,0 km/h (0 Bft) 0,00 %
01.08.2015 07:31 18,2 C 55 % 1013,6 hPa 0,0 l/m 0,0 km/h (0 Bft) O-NO 74 5 min 0,000 mm 1,0 UV-I 328 W/m 9,0 C 18,2 C 0,0 km/h (0 Bft) 0,00 %
01.08.2015 07:36 18,6 C 51 % 1013,7 hPa 0,0 l/m 0,0 km/h (0 Bft) O 92 5 min 0,000 mm 1,0 UV-I 330 W/m 8,3 C 18,6 C 0,0 km/h (0 Bft) 0,00 %
01.08.2015 07:41 18,6 C 52 % 1013,6 hPa 0,0 l/m 0,0 km/h (0 Bft) O 87 5 min 0,000 mm 1,0 UV-I 330 W/m 8,5 C 18,6 C 0,0 km/h (0 Bft) 0,00 %
01.08.2015 07:46 18,2 C 53 % 1013,6 hPa 0,0 l/m 0,0 km/h (0 Bft) NO 45 5 min 0,000 mm 1,0 UV-I 333 W/m 8,5 C 18,2 C 0,0 km/h (0 Bft) 0,00 %
01.08.2015 07:51 18,0 C 53 % 1013,5 hPa 0,0 l/m 0,0 km/h (0 Bft) NO 36 5 min 0,000 mm 1,0 UV-I 338 W/m 8,3 C 18,0 C 0,0 km/h (0 Bft) 0,00 %
01.08.2015 07:56 18,1 C 52 % 1013,6 hPa 0,0 l/m 4,3 km/h (1 Bft) O-SO 105 5 min 0,000 mm 1,0 UV-I 310 W/m 8,1 C 18,1 C 7,9 km/h (2 Bft) 0,00 %
01.08.2015 08:01 18,1 C 53 % 1013,5 hPa 0,0 l/m 0,0 km/h (0 Bft) S 173 5 min 0,000 mm 1,0 UV-I 322 W/m 8,4 C 18,1 C 0,0 km/h (0 Bft) 0,00 %
01.08.2015 08:06 18,0 C 54 % 1013,4 hPa 0,0 l/m 0,0 km/h (0 Bft) O-NO 59 5 min 0,000 mm 1,0 UV-I 319 W/m 8,6 C 18,0 C 0,0 km/h (0 Bft) 0,00 %
01.08.2015 08:11 18,0 C 53 % 1013,3 hPa 0,0 l/m 2,9 km/h (1 Bft) SO 142 5 min 0,000 mm 1,0 UV-I 313 W/m 8,3 C 18,0 C 4,0 km/h (1 Bft) 0,00 %
01.08.2015 08:16 18,2 C 52 % 1013,3 hPa 0,0 l/m 5,8 km/h (2 Bft) O-SO 105 5 min 0,000 mm 1,0 UV-I 327 W/m 8,2 C 18,2 C 7,9 km/h (2 Bft) 0,00 %
01.08.2015 08:21 18,5 C 53 % 1013,3 hPa 0,0 l/m 5,4 km/h (1 Bft) O 90 5 min 0,000 mm 1,0 UV-I 326 W/m 8,7 C 18,5 C 7,9 km/h (2 Bft) 0,00 %
01.08.2015 08:26 18,6 C 53 % 1013,2 hPa 0,0 l/m 0,0 km/h (0 Bft) O 79 5 min 0,000 mm 1,0 UV-I 348 W/m 8,8 C 18,6 C 0,0 km/h (0 Bft) 0,00 %
01.08.2015 08:31 18,5 C 53 % 1013,0 hPa 0,0 l/m 9,0 km/h (2 Bft) SO 137 5 min 0,000 mm 1,0 UV-I 338 W/m 8,7 C 17,4 C 11,9 km/h (2 Bft) 0,00 %
01.08.2015 08:36 18,5 C 52 % 1013,6 hPa 0,0 l/m 4,3 km/h (1 Bft) SO 133 5 min 0,000 mm 1,0 UV-I 349 W/m 8,5 C 18,5 C 7,9 km/h (2 Bft) 0,00 %
01.08.2015 08:41 18,6 C 52 % 1013,5 hPa 0,0 l/m 4,3 km/h (1 Bft) O-SO 103 5 min 0,000 mm 1,0 UV-I 278 W/m 8,5 C 18,6 C 7,9 km/h (2 Bft) 0,00 %
01.08.2015 08:47 18,8 C 52 % 1013,3 hPa 0,0 l/m 0,7 km/h (0 Bft) O 95 6 min 0,000 mm 1,0 UV-I 372 W/m 8,7 C 18,8 C 4,0 km/h (1 Bft) 0,00 %
01.08.2015 08:52 19,1 C 52 % 1013,3 hPa 0,0 l/m 0,0 km/h (0 Bft) W-NW 296 5 min 0,000 mm 1,0 UV-I 388 W/m 9,0 C 19,1 C 0,0 km/h (0 Bft) 0,00 %
01.08.2015 08:57 19,5 C 49 % 1013,5 hPa 0,0 l/m 0,0 km/h (0 Bft) NO 48 5 min 0,000 mm 2,0 UV-I 395 W/m 8,5 C 19,5 C 0,0 km/h (0 Bft) 0,00 %
01.08.2015 09:02 20,2 C 46 % 1013,4 hPa 0,0 l/m 0,4 km/h (0 Bft) N 356 5 min 0,000 mm 2,0 UV-I 405 W/m 8,2 C 20,2 C 4,0 km/h (1 Bft) 0,00 %
01.08.2015 09:07 20,7 C 47 % 1013,4 hPa 0,0 l/m 0,0 km/h (0 Bft) O 91 5 min 0,000 mm 2,0 UV-I 376 W/m 9,0 C 20,7 C 0,0 km/h (0 Bft) 0,00 %
01.08.2015 09:12 20,8 C 46 % 1013,5 hPa 0,0 l/m 4,0 km/h (1 Bft) O 85 5 min 0,000 mm 2,0 UV-I 417 W/m 8,8 C 20,8 C 7,9 km/h (2 Bft) 0,00 %
01.08.2015 09:17 20,9 C 43 % 1013,2 hPa 0,0 l/m 1,4 km/h (1 Bft) NO 35 5 min 0,000 mm 2,0 UV-I 427 W/m 7,8 C 20,9 C 4,0 km/h (1 Bft) 0,00 %
01.08.2015 09:22 21,0 C 43 % 1013,1 hPa 0,0 l/m 5,4 km/h (1 Bft) O-NO 72 5 min 0,000 mm 2,0 UV-I 442 W/m 7,9 C 21,0 C 7,9 km/h (2 Bft) 0,00 %
01.08.2015 09:27 21,2 C 43 % 1013,5 hPa 0,0 l/m 0,4 km/h (0 Bft) O-NO 71 5 min 0,000 mm 2,0 UV-I 411 W/m 8,1 C 21,2 C 4,0 km/h (1 Bft) 0,00 %
01.08.2015 09:32 21,3 C 42 % 1013,4 hPa 0,0 l/m 9,7 km/h (2 Bft) S-SO 148 5 min 0,000 mm 2,0 UV-I 468 W/m 7,9 C 20,2 C 15,8 km/h (3 Bft) 0,00 %
01.08.2015 09:37 21,6 C 43 % 1013,5 hPa 0,0 l/m 0,0 km/h (0 Bft) N-NO 21 5 min 0,000 mm 2,0 UV-I 480 W/m 8,5 C 21,6 C 0,0 km/h (0 Bft) 0,00 %
01.08.2015 09:42 21,9 C 43 % 1013,5 hPa 0,0 l/m 4,0 km/h (1 Bft) O-SO 110 5 min 0,000 mm 2,0 UV-I 491 W/m 8,7 C 21,9 C 4,0 km/h (1 Bft) 0,00 %
01.08.2015 09:47 22,4 C 41 % 1013,4 hPa 0,0 l/m 2,2 km/h (1 Bft) O-SO 106 5 min 0,000 mm 2,0 UV-I 505 W/m 8,5 C 22,4 C 4,0 km/h (1 Bft) 0,00 %
01.08.2015 09:52 22,9 C 40 % 1013,2 hPa 0,0 l/m 3,2 km/h (1 Bft) SO 129 5 min 0,000 mm 2,0 UV-I 518 W/m 8,6 C 22,9 C 7,9 km/h (2 Bft) 0,00 %
01.08.2015 09:57 23,1 C 40 % 1013,5 hPa 0,0 l/m 0,4 km/h (0 Bft) O-NO 59 5 min 0,000 mm 2,0 UV-I 525 W/m 8,8 C 23,1 C 4,0 km/h (1 Bft) 0,00 %
01.08.2015 10:02 23,2 C 41 % 1013,6 hPa 0,0 l/m 0,0 km/h (0 Bft) NO 37 5 min 0,000 mm 2,0 UV-I 536 W/m 9,2 C 23,2 C 0,0 km/h (0 Bft) 0,00 %
01.08.2015 10:07 23,3 C 40 % 1013,4 hPa 0,0 l/m 0,0 km/h (0 Bft) NW 316 5 min 0,000 mm 2,0 UV-I 552 W/m 8,9 C 23,3 C 0,0 km/h (0 Bft) 0,00 %
01.08.2015 10:12 23,4 C 41 % 1013,5 hPa 0,0 l/m 0,0 km/h (0 Bft) O-NO 76 5 min 0,000 mm 2,0 UV-I 558 W/m 9,4 C 23,4 C 0,0 km/h (0 Bft) 0,00 %
01.08.2015 10:17 23,7 C 39 % 1013,6 hPa 0,0 l/m 3,2 km/h (1 Bft) O-SO 119 5 min 0,000 mm 3,0 UV-I 586 W/m 8,9 C 23,7 C 4,0 km/h (1 Bft) 0,00 %
01.08.2015 10:22 24,1 C 36 % 1013,7 hPa 0,0 l/m 0,0 km/h (0 Bft) NO 36 5 min 0,000 mm 3,0 UV-I 584 W/m 8,1 C 24,1 C 0,0 km/h (0 Bft) 0,00 %
01.08.2015 10:27 24,4 C 37 % 1013,5 hPa 0,0 l/m 0,0 km/h (0 Bft) O-NO 68 5 min 0,000 mm 3,0 UV-I 613 W/m 8,8 C 24,4 C 0,0 km/h (0 Bft) 0,00 %
01.08.2015 10:32 24,7 C 35 % 1013,5 hPa 0,0 l/m 0,7 km/h (0 Bft) NO 47 5 min 0,000 mm 3,0 UV-I 617 W/m 8,2 C 24,7 C 4,0 km/h (1 Bft) 0,00 %
01.08.2015 10:37 24,9 C 35 % 1013,6 hPa 0,0 l/m 0,7 km/h (0 Bft) NO 55 5 min 0,000 mm 3,0 UV-I 649 W/m 8,4 C 24,9 C 4,0 km/h (1 Bft) 0,00 %
01.08.2015 10:42 24,8 C 35 % 1013,8 hPa 0,0 l/m 2,2 km/h (1 Bft) O-NO 76 5 min 0,000 mm 3,0 UV-I 651 W/m 8,3 C 24,8 C 4,0 km/h (1 Bft) 0,00 %
01.08.2015 10:47 24,6 C 35 % 1013,8 hPa 0,0 l/m 2,2 km/h (1 Bft) O-SO 106 5 min 0,000 mm 3,0 UV-I 673 W/m 8,1 C 24,6 C 4,0 km/h (1 Bft) 0,00 %
01.08.2015 10:52 24,8 C 36 % 1013,8 hPa 0,0 l/m 5,4 km/h (1 Bft) NO 56 5 min 0,000 mm 3,0 UV-I 677 W/m 8,7 C 24,8 C 7,9 km/h (2 Bft) 0,00 %
01.08.2015 10:57 25,0 C 34 % 1013,8 hPa 0,0 l/m 0,0 km/h (0 Bft) N-NO 33 5 min 0,000 mm 3,0 UV-I 681 W/m 8,0 C 25,0 C 0,0 km/h (0 Bft) 0,00 %
01.08.2015 11:02 25,1 C 34 % 1013,8 hPa 0,0 l/m 0,4 km/h (0 Bft) O-NO 78 5 min 0,000 mm 3,0 UV-I 626 W/m 8,1 C 25,1 C 4,0 km/h (1 Bft) 0,00 %
01.08.2015 11:07 25,2 C 35 % 1013,7 hPa 0,0 l/m 0,0 km/h (0 Bft) NW 323 5 min 0,000 mm 3,0 UV-I 577 W/m 8,6 C 25,2 C 0,0 km/h (0 Bft) 0,00 %
01.08.2015 11:12 25,3 C 34 % 1013,8 hPa 0,0 l/m 0,7 km/h (0 Bft) NO 34 5 min 0,000 mm 3,0 UV-I 643 W/m 8,3 C 25,3 C 4,0 km/h (1 Bft) 0,00 %
01.08.2015 11:17 25,1 C 34 % 1013,6 hPa 0,0 l/m 0,0 km/h (0 Bft) NO 49 5 min 0,000 mm 4,0 UV-I 752 W/m 8,1 C 25,1 C 0,0 km/h (0 Bft) 0,00 %
01.08.2015 11:22 25,2 C 34 % 1013,5 hPa 0,0 l/m 0,4 km/h (0 Bft) O-NO 77 5 min 0,000 mm 4,0 UV-I 738 W/m 8,2 C 25,2 C 4,0 km/h (1 Bft) 0,00 %
01.08.2015 11:27 25,4 C 34 % 1013,5 hPa 0,0 l/m 5,4 km/h (1 Bft) O-NO 74 5 min 0,000 mm 4,0 UV-I 759 W/m 8,4 C 25,4 C 7,9 km/h (2 Bft) 0,00 %
01.08.2015 11:32 25,6 C 33 % 1013,6 hPa 0,0 l/m 0,0 km/h (0 Bft) O 89 5 min 0,000 mm 4,0 UV-I 585 W/m 8,1 C 25,6 C 0,0 km/h (0 Bft) 0,00 %
01.08.2015 11:37 25,9 C 32 % 1013,7 hPa 0,0 l/m 6,5 km/h (2 Bft) O 82 5 min 0,000 mm 4,0 UV-I 806 W/m 7,9 C 25,9 C 7,9 km/h (2 Bft) 0,00 %
01.08.2015 11:42 25,9 C 33 % 1013,6 hPa 0,0 l/m 5,8 km/h (2 Bft) O-SO 114 5 min 0,000 mm 4,0 UV-I 813 W/m 8,4 C 25,9 C 11,9 km/h (2 Bft) 0,00 %
01.08.2015 11:47 25,9 C 31 % 1013,6 hPa 0,0 l/m 0,0 km/h (0 Bft) NO 54 5 min 0,000 mm 5,0 UV-I 807 W/m 7,5 C 25,9 C 0,0 km/h (0 Bft) 0,00 %
01.08.2015 11:52 26,2 C 31 % 1013,7 hPa 0,0 l/m 2,9 km/h (1 Bft) O-SO 109 5 min 0,000 mm 5,0 UV-I 812 W/m 7,7 C 26,2 C 4,0 km/h (1 Bft) 0,00 %
01.08.2015 11:57 26,4 C 31 % 1013,8 hPa 0,0 l/m 3,2 km/h (1 Bft) NO 43 5 min 0,000 mm 5,0 UV-I 815 W/m 7,9 C 26,4 C 7,9 km/h (2 Bft) 0,00 %
01.08.2015 12:02 26,4 C 32 % 1013,8 hPa 0,0 l/m 5,8 km/h (2 Bft) O 90 5 min 0,000 mm 5,0 UV-I 814 W/m 8,4 C 26,4 C 11,9 km/h (2 Bft) 0,00 %
01.08.2015 12:07 26,3 C 32 % 1013,4 hPa 0,0 l/m 2,9 km/h (1 Bft) O-SO 115 5 min 0,000 mm 5,0 UV-I 819 W/m 8,3 C 26,3 C 4,0 km/h (1 Bft) 0,00 %
01.08.2015 12:12 26,3 C 31 % 1013,5 hPa 0,0 l/m 1,8 km/h (1 Bft) O 88 5 min 0,000 mm 5,0 UV-I 826 W/m 7,8 C 26,3 C 4,0 km/h (1 Bft) 0,00 %
01.08.2015 12:17 26,3 C 30 % 1013,5 hPa 0,0 l/m 0,7 km/h (0 Bft) O-NO 73 5 min 0,000 mm 5,0 UV-I 819 W/m 7,3 C 26,3 C 4,0 km/h (1 Bft) 0,00 %
01.08.2015 12:22 26,3 C 31 % 1013,5 hPa 0,0 l/m 4,0 km/h (1 Bft) SO 128 5 min 0,000 mm 5,0 UV-I 819 W/m 7,8 C 26,3 C 7,9 km/h (2 Bft) 0,00 %
01.08.2015 12:27 26,3 C 30 % 1013,5 hPa 0,0 l/m 0,4 km/h (0 Bft) NO 40 5 min 0,000 mm 5,0 UV-I 817 W/m 7,3 C 26,3 C 4,0 km/h (1 Bft) 0,00 %
01.08.2015 12:32 26,3 C 31 % 1013,5 hPa 0,0 l/m 0,0 km/h (0 Bft) O-NO 77 5 min 0,000 mm 5,0 UV-I 824 W/m 7,8 C 26,3 C 0,0 km/h (0 Bft) 0,00 %
01.08.2015 12:37 26,3 C 30 % 1013,4 hPa 0,0 l/m 6,5 km/h (2 Bft) O-SO 107 5 min 0,000 mm 5,0 UV-I 777 W/m 7,3 C 26,3 C 7,9 km/h (2 Bft) 0,00 %
01.08.2015 12:42 26,3 C 33 % 1013,4 hPa 0,0 l/m 6,8 km/h (2 Bft) N 351 5 min 0,000 mm 4,0 UV-I 662 W/m 8,7 C 26,2 C 11,9 km/h (2 Bft) 0,00 %
01.08.2015 12:47 26,3 C 31 % 1013,2 hPa 0,0 l/m 4,3 km/h (1 Bft) O-NO 66 5 min 0,000 mm 5,0 UV-I 779 W/m 7,8 C 26,3 C 7,9 km/h (2 Bft) 0,00 %
01.08.2015 12:52 26,3 C 31 % 1013,3 hPa 0,0 l/m 0,0 km/h (0 Bft) NO 39 5 min 0,000 mm 5,0 UV-I 818 W/m 7,8 C 26,3 C 0,0 km/h (0 Bft) 0,00 %
01.08.2015 12:57 26,3 C 30 % 1013,6 hPa 0,0 l/m 0,0 km/h (0 Bft) N-NO 26 5 min 0,000 mm 5,0 UV-I 856 W/m 7,3 C 26,3 C 0,0 km/h (0 Bft) 0,00 %
01.08.2015 13:02 26,5 C 30 % 1013,7 hPa 0,0 l/m 1,4 km/h (1 Bft) SW 231 5 min 0,000 mm 5,0 UV-I 875 W/m 7,5 C 26,5 C 7,9 km/h (2 Bft) 0,00 %
01.08.2015 13:07 26,8 C 33 % 1013,6 hPa 0,0 l/m 0,7 km/h (0 Bft) NO 45 5 min 0,000 mm 5,0 UV-I 758 W/m 9,2 C 26,8 C 4,0 km/h (1 Bft) 0,00 %
01.08.2015 13:12 26,9 C 33 % 1013,6 hPa 0,0 l/m 1,4 km/h (1 Bft) O-SO 123 5 min 0,000 mm 5,0 UV-I 972 W/m 9,3 C 26,9 C 4,0 km/h (1 Bft) 0,00 %
01.08.2015 13:17 26,9 C 33 % 1013,6 hPa 0,0 l/m 1,4 km/h (1 Bft) N 355 5 min 0,000 mm 5,0 UV-I 827 W/m 9,3 C 26,9 C 4,0 km/h (1 Bft) 0,00 %
01.08.2015 13:22 27,0 C 32 % 1013,4 hPa 0,0 l/m 4,0 km/h (1 Bft) O-NO 73 5 min 0,000 mm 5,0 UV-I 887 W/m 8,9 C 27,0 C 7,9 km/h (2 Bft) 0,00 %
01.08.2015 13:27 27,0 C 33 % 1013,5 hPa 0,0 l/m 1,8 km/h (1 Bft) N-NW 348 5 min 0,000 mm 5,0 UV-I 1011 W/m 9,3 C 27,0 C 4,0 km/h (1 Bft) 0,00 %
01.08.2015 13:32 27,4 C 31 % 1013,5 hPa 0,0 l/m 5,4 km/h (1 Bft) O-SO 116 5 min 0,000 mm 5,0 UV-I 1125 W/m 8,8 C 27,4 C 7,9 km/h (2 Bft) 0,00 %
01.08.2015 13:37 27,9 C 29 % 1013,5 hPa 0,0 l/m 0,0 km/h (0 Bft) NO 41 5 min 0,000 mm 4,0 UV-I 916 W/m 8,2 C 27,9 C 0,0 km/h (0 Bft) 0,00 %
01.08.2015 13:42 28,4 C 26 % 1013,3 hPa 0,0 l/m 4,0 km/h (1 Bft) NW 312 5 min 0,000 mm 4,0 UV-I 862 W/m 7,0 C 28,4 C 4,0 km/h (1 Bft) 0,00 %
01.08.2015 13:47 28,8 C 29 % 1013,4 hPa 0,0 l/m 0,0 km/h (0 Bft) N-NO 28 5 min 0,000 mm 5,0 UV-I 1084 W/m 9,0 C 28,8 C 0,0 km/h (0 Bft) 0,00 %
01.08.2015 13:52 29,2 C 27 % 1013,4 hPa 0,0 l/m 0,0 km/h (0 Bft) NO 54 5 min 0,000 mm 5,0 UV-I 1258 W/m 8,3 C 29,2 C 0,0 km/h (0 Bft) 0,00 %
01.08.2015 13:57 29,4 C 25 % 1013,5 hPa 0,0 l/m 0,4 km/h (0 Bft) O-NO 72 5 min 0,000 mm 3,0 UV-I 721 W/m 7,3 C 29,4 C 4,0 km/h (1 Bft) 0,00 %
01.08.2015 14:02 29,5 C 26 % 1013,6 hPa 0,0 l/m 0,0 km/h (0 Bft) NO 49 5 min 0,000 mm 3,0 UV-I 601 W/m 8,0 C 29,5 C 0,0 km/h (0 Bft) 0,00 %
01.08.2015 14:07 29,5 C 26 % 1013,5 hPa 0,0 l/m 1,4 km/h (1 Bft) O-SO 102 5 min 0,000 mm 2,0 UV-I 521 W/m 8,0 C 29,5 C 4,0 km/h (1 Bft) 0,00 %
01.08.2015 14:12 29,1 C 29 % 1013,4 hPa 0,0 l/m 1,4 km/h (1 Bft) O 86 5 min 0,000 mm 2,0 UV-I 472 W/m 9,2 C 29,1 C 4,0 km/h (1 Bft) 0,00 %
01.08.2015 14:17 28,7 C 29 % 1013,4 hPa 0,0 l/m 0,0 km/h (0 Bft) O-SO 116 5 min 0,000 mm 3,0 UV-I 567 W/m 8,9 C 28,7 C 0,0 km/h (0 Bft) 0,00 %
01.08.2015 14:22 28,4 C 31 % 1013,3 hPa 0,0 l/m 0,4 km/h (0 Bft) N 351 5 min 0,000 mm 5,0 UV-I 1020 W/m 9,6 C 28,4 C 4,0 km/h (1 Bft) 0,00 %
01.08.2015 14:27 28,5 C 28 % 1013,2 hPa 0,0 l/m 0,7 km/h (0 Bft) O 99 5 min 0,000 mm 4,0 UV-I 978 W/m 8,2 C 28,5 C 4,0 km/h (1 Bft) 0,00 %
01.08.2015 14:32 28,9 C 29 % 1013,2 hPa 0,0 l/m 1,8 km/h (1 Bft) O 90 5 min 0,000 mm 4,0 UV-I 1022 W/m 9,1 C 28,9 C 4,0 km/h (1 Bft) 0,00 %
01.08.2015 14:37 28,9 C 29 % 1013,3 hPa 0,0 l/m 4,7 km/h (1 Bft) O 91 5 min 0,000 mm 4,0 UV-I 921 W/m 9,1 C 28,9 C 11,9 km/h (2 Bft) 0,00 %
01.08.2015 14:42 28,8 C 28 % 1012,9 hPa 0,0 l/m 0,4 km/h (0 Bft) O-NO 58 5 min 0,000 mm 4,0 UV-I 765 W/m 8,5 C 28,8 C 4,0 km/h (1 Bft) 0,00 %
01.08.2015 14:47 28,8 C 30 % 1013,0 hPa 0,0 l/m 3,2 km/h (1 Bft) O-SO 112 5 min 0,000 mm 3,0 UV-I 689 W/m 9,5 C 28,8 C 4,0 km/h (1 Bft) 0,00 %
01.08.2015 14:52 28,8 C 28 % 1013,1 hPa 0,0 l/m 0,0 km/h (0 Bft) N-NO 31 5 min 0,000 mm 3,0 UV-I 627 W/m 8,5 C 28,8 C 0,0 km/h (0 Bft) 0,00 %
01.08.2015 14:57 28,6 C 28 % 1013,0 hPa 0,0 l/m 0,0 km/h (0 Bft) NO 36 5 min 0,000 mm 4,0 UV-I 853 W/m 8,3 C 28,6 C 0,0 km/h (0 Bft) 0,00 %
01.08.2015 15:02 28,6 C 29 % 1013,0 hPa 0,0 l/m 1,4 km/h (1 Bft) N 350 5 min 0,000 mm 4,0 UV-I 1011 W/m 8,8 C 28,6 C 4,0 km/h (1 Bft) 0,00 %
01.08.2015 15:07 28,8 C 27 % 1012,8 hPa 0,0 l/m 2,9 km/h (1 Bft) NW 319 5 min 0,000 mm 3,0 UV-I 681 W/m 7,9 C 28,8 C 4,0 km/h (1 Bft) 0,00 %
01.08.2015 15:12 29,0 C 27 % 1012,9 hPa 0,0 l/m 0,0 km/h (0 Bft) O-NO 63 5 min 0,000 mm 3,0 UV-I 821 W/m 8,1 C 29,0 C 0,0 km/h (0 Bft) 0,00 %
01.08.2015 15:17 29,2 C 27 % 1012,7 hPa 0,0 l/m 0,0 km/h (0 Bft) O-NO 60 5 min 0,000 mm 4,0 UV-I 1099 W/m 8,3 C 29,2 C 0,0 km/h (0 Bft) 0,00 %
01.08.2015 15:22 29,5 C 26 % 1012,9 hPa 0,0 l/m 0,4 km/h (0 Bft) N 1 5 min 0,000 mm 2,0 UV-I 503 W/m 8,0 C 29,5 C 4,0 km/h (1 Bft) 0,00 %
01.08.2015 15:27 29,6 C 27 % 1012,8 hPa 0,0 l/m 0,0 km/h (0 Bft) NO 48 5 min 0,000 mm 2,0 UV-I 500 W/m 8,6 C 29,6 C 0,0 km/h (0 Bft) 0,00 %
01.08.2015 15:32 29,4 C 27 % 1012,8 hPa 0,0 l/m 1,8 km/h (1 Bft) N-NO 22 5 min 0,000 mm 2,0 UV-I 561 W/m 8,4 C 29,4 C 4,0 km/h (1 Bft) 0,00 %
01.08.2015 15:37 29,2 C 28 % 1012,7 hPa 0,0 l/m 0,0 km/h (0 Bft) O-NO 63 5 min 0,000 mm 2,0 UV-I 446 W/m 8,8 C 29,2 C 0,0 km/h (0 Bft) 0,00 %
01.08.2015 15:42 29,1 C 30 % 1012,9 hPa 0,0 l/m 0,0 km/h (0 Bft) NO 44 5 min 0,000 mm 2,0 UV-I 508 W/m 9,7 C 29,1 C 0,0 km/h (0 Bft) 0,00 %
01.08.2015 15:47 29,1 C 26 % 1012,8 hPa 0,0 l/m 0,0 km/h (0 Bft) N-NW 346 5 min 0,000 mm 4,0 UV-I 1087 W/m 7,6 C 29,1 C 0,0 km/h (0 Bft) 0,00 %
01.08.2015 15:52 29,3 C 26 % 1012,7 hPa 0,0 l/m 0,4 km/h (0 Bft) N-NO 24 5 min 0,000 mm 2,0 UV-I 682 W/m 7,8 C 29,3 C 4,0 km/h (1 Bft) 0,00 %
01.08.2015 15:57 29,6 C 27 % 1012,8 hPa 0,0 l/m 0,0 km/h (0 Bft) NW 318 5 min 0,000 mm 2,0 UV-I 707 W/m 8,6 C 29,6 C 0,0 km/h (0 Bft) 0,00 %
01.08.2015 16:02 29,8 C 30 % 1012,8 hPa 0,0 l/m 5,4 km/h (1 Bft) W-SW 254 5 min 0,000 mm 4,0 UV-I 1142 W/m 10,3 C 29,8 C 7,9 km/h (2 Bft) 0,00 %
01.08.2015 16:07 30,0 C 24 % 1012,8 hPa 0,0 l/m 0,0 km/h (0 Bft) O-NO 57 5 min 0,000 mm 3,0 UV-I 1067 W/m 7,2 C 30,0 C 0,0 km/h (0 Bft) 0,00 %
01.08.2015 16:12 30,3 C 23 % 1012,8 hPa 0,0 l/m 0,0 km/h (0 Bft) O-NO 64 5 min 0,000 mm 3,0 UV-I 1046 W/m 6,8 C 30,3 C 0,0 km/h (0 Bft) 0,00 %
01.08.2015 16:17 30,5 C 23 % 1012,8 hPa 0,0 l/m 0,0 km/h (0 Bft) NO 36 5 min 0,000 mm 3,0 UV-I 994 W/m 7,0 C 30,5 C 0,0 km/h (0 Bft) 0,00 %
01.08.2015 16:22 30,5 C 25 % 1012,9 hPa 0,0 l/m 0,0 km/h (0 Bft) N-NO 29 5 min 0,000 mm 2,0 UV-I 571 W/m 8,2 C 30,5 C 0,0 km/h (0 Bft) 0,00 %
01.08.2015 16:27 30,3 C 29 % 1012,8 hPa 0,0 l/m 0,0 km/h (0 Bft) W-NW 287 5 min 0,000 mm 2,0 UV-I 631 W/m 10,3 C 30,3 C 0,0 km/h (0 Bft) 0,00 %
01.08.2015 16:32 29,8 C 28 % 1012,7 hPa 0,0 l/m 0,4 km/h (0 Bft) NO 48 5 min 0,000 mm 2,0 UV-I 625 W/m 9,3 C 29,8 C 4,0 km/h (1 Bft) 0,00 %
01.08.2015 16:37 29,4 C 29 % 1012,7 hPa 0,0 l/m 0,0 km/h (0 Bft) NO 56 5 min 0,000 mm 2,0 UV-I 444 W/m 9,5 C 29,4 C 0,0 km/h (0 Bft) 0,00 %
01.08.2015 16:42 29,2 C 28 % 1012,7 hPa 0,0 l/m 2,9 km/h (1 Bft) N-NW 336 5 min 0,000 mm 2,0 UV-I 423 W/m 8,8 C 29,2 C 4,0 km/h (1 Bft) 0,00 %
01.08.2015 16:47 29,2 C 30 % 1012,9 hPa 0,0 l/m 1,4 km/h (1 Bft) NW 307 5 min 0,000 mm 2,0 UV-I 398 W/m 9,8 C 29,2 C 4,0 km/h (1 Bft) 0,00 %
01.08.2015 16:52 29,1 C 29 % 1012,9 hPa 0,0 l/m 0,0 km/h (0 Bft) NO 36 5 min 0,000 mm 2,0 UV-I 388 W/m 9,2 C 29,1 C 0,0 km/h (0 Bft) 0,00 %
01.08.2015 16:57 28,9 C 29 % 1012,8 hPa 0,0 l/m 2,9 km/h (1 Bft) N-NW 333 5 min 0,000 mm 2,0 UV-I 366 W/m 9,1 C 28,9 C 4,0 km/h (1 Bft) 0,00 %
01.08.2015 17:02 28,7 C 30 % 1012,7 hPa 0,0 l/m 0,0 km/h (0 Bft) NO 36 5 min 0,000 mm 2,0 UV-I 366 W/m 9,4 C 28,7 C 0,0 km/h (0 Bft) 0,00 %
01.08.2015 17:07 28,6 C 31 % 1012,8 hPa 0,0 l/m 0,0 km/h (0 Bft) NO 40 5 min 0,000 mm 1,0 UV-I 307 W/m 9,8 C 28,6 C 0,0 km/h (0 Bft) 0,00 %
01.08.2015 17:12 28,5 C 31 % 1012,8 hPa 0,0 l/m 0,0 km/h (0 Bft) N 351 0 min 0,000 mm 1,0 UV-I 254 W/m 9,7 C 28,5 C 0,0 km/h (0 Bft) 0,00 %
01.08.2015 17:17 28,5 C 30 % 1012,8 hPa 0,0 l/m 0,7 km/h (0 Bft) N 3 0 min 0,000 mm 1,0 UV-I 230 W/m 9,2 C 28,5 C 4,0 km/h (1 Bft) 0,00 %
01.08.2015 17:22 28,2 C 31 % 1012,6 hPa 0,0 l/m 0,0 km/h (0 Bft) NO 38 0 min 0,000 mm 1,0 UV-I 216 W/m 9,4 C 28,2 C 0,0 km/h (0 Bft) 0,00 %
01.08.2015 17:27 28,0 C 33 % 1012,6 hPa 0,0 l/m 0,0 km/h (0 Bft) NO 39 0 min 0,000 mm 1,0 UV-I 175 W/m 10,2 C 28,0 C 0,0 km/h (0 Bft) 0,00 %
01.08.2015 17:32 27,9 C 33 % 1012,6 hPa 0,0 l/m 0,0 km/h (0 Bft) SO 131 0 min 0,000 mm 1,0 UV-I 168 W/m 10,1 C 27,9 C 0,0 km/h (0 Bft) 0,00 %
01.08.2015 17:37 27,6 C 33 % 1012,6 hPa 0,0 l/m 0,0 km/h (0 Bft) N-NW 332 0 min 0,000 mm 1,0 UV-I 174 W/m 9,9 C 27,6 C 0,0 km/h (0 Bft) 0,00 %
01.08.2015 17:42 27,3 C 34 % 1012,6 hPa 0,0 l/m 0,0 km/h (0 Bft) N-NO 28 0 min 0,000 mm 1,0 UV-I 179 W/m 10,0 C 27,3 C 0,0 km/h (0 Bft) 0,00 %
01.08.2015 17:47 27,0 C 33 % 1012,8 hPa 0,0 l/m 0,0 km/h (0 Bft) NO 45 0 min 0,000 mm 1,0 UV-I 209 W/m 9,3 C 27,0 C 0,0 km/h (0 Bft) 0,00 %
01.08.2015 17:52 26,8 C 32 % 1012,5 hPa 0,0 l/m 0,0 km/h (0 Bft) N-NO 28 0 min 0,000 mm 1,0 UV-I 191 W/m 8,7 C 26,8 C 0,0 km/h (0 Bft) 0,00 %
01.08.2015 17:57 26,7 C 32 % 1012,8 hPa 0,0 l/m 0,0 km/h (0 Bft) N-NO 33 0 min 0,000 mm 1,0 UV-I 151 W/m 8,6 C 26,7 C 0,0 km/h (0 Bft) 0,00 %
01.08.2015 18:02 26,6 C 32 % 1012,7 hPa 0,0 l/m 0,0 km/h (0 Bft) NO 37 0 min 0,000 mm 1,0 UV-I 152 W/m 8,5 C 26,6 C 0,0 km/h (0 Bft) 0,00 %
01.08.2015 18:07 26,4 C 32 % 1012,7 hPa 0,0 l/m 0,0 km/h (0 Bft) NW 322 0 min 0,000 mm 1,0 UV-I 151 W/m 8,4 C 26,4 C 0,0 km/h (0 Bft) 0,00 %
01.08.2015 18:12 26,2 C 39 % 1012,8 hPa 0,0 l/m 0,0 km/h (0 Bft) N 7 0 min 0,000 mm 1,0 UV-I 127 W/m 11,1 C 26,2 C 0,0 km/h (0 Bft) 0,00 %
01.08.2015 18:17 25,7 C 41 % 1012,9 hPa 0,0 l/m 1,4 km/h (1 Bft) N 353 0 min 0,000 mm 1,0 UV-I 116 W/m 11,4 C 25,7 C 4,0 km/h (1 Bft) 0,00 %
01.08.2015 18:22 25,2 C 42 % 1012,9 hPa 0,0 l/m 3,2 km/h (1 Bft) NW 313 0 min 0,000 mm 1,0 UV-I 118 W/m 11,4 C 25,2 C 7,9 km/h (2 Bft) 0,00 %
01.08.2015 18:27 24,9 C 44 % 1012,9 hPa 0,0 l/m 0,4 km/h (0 Bft) O-NO 67 0 min 0,000 mm 1,0 UV-I 102 W/m 11,8 C 24,9 C 4,0 km/h (1 Bft) 0,00 %
01.08.2015 18:32 24,6 C 45 % 1013,0 hPa 0,0 l/m 3,2 km/h (1 Bft) NW 323 0 min 0,000 mm 1,0 UV-I 87 W/m 11,9 C 24,6 C 4,0 km/h (1 Bft) 0,00 %
01.08.2015 18:37 24,3 C 45 % 1013,0 hPa 0,0 l/m 5,8 km/h (2 Bft) W-SW 255 0 min 0,000 mm 1,0 UV-I 82 W/m 11,6 C 24,3 C 7,9 km/h (2 Bft) 0,00 %
01.08.2015 18:42 24,0 C 46 % 1013,0 hPa 0,0 l/m 3,2 km/h (1 Bft) N-NW 337 0 min 0,000 mm 0,0 UV-I 79 W/m 11,7 C 24,0 C 7,9 km/h (2 Bft) 0,00 %
01.08.2015 18:47 23,8 C 48 % 1013,0 hPa 0,0 l/m 0,0 km/h (0 Bft) O-NO 71 0 min 0,000 mm 0,0 UV-I 73 W/m 12,1 C 23,8 C 0,0 km/h (0 Bft) 0,00 %
01.08.2015 18:52 23,5 C 47 % 1013,0 hPa 0,0 l/m 1,8 km/h (1 Bft) W 280 0 min 0,000 mm 0,0 UV-I 59 W/m 11,5 C 23,5 C 4,0 km/h (1 Bft) 0,00 %
01.08.2015 18:57 23,2 C 48 % 1013,1 hPa 0,0 l/m 0,4 km/h (0 Bft) NO 52 0 min 0,000 mm 0,0 UV-I 56 W/m 11,6 C 23,2 C 4,0 km/h (1 Bft) 0,00 %
01.08.2015 19:02 23,0 C 49 % 1013,1 hPa 0,0 l/m 0,4 km/h (0 Bft) N-NW 338 0 min 0,000 mm 0,0 UV-I 58 W/m 11,7 C 23,0 C 4,0 km/h (1 Bft) 0,00 %
01.08.2015 19:07 22,9 C 50 % 1013,0 hPa 0,0 l/m 0,4 km/h (0 Bft) N-NW 345 0 min 0,000 mm 0,0 UV-I 60 W/m 11,9 C 22,9 C 4,0 km/h (1 Bft) 0,00 %
01.08.2015 19:12 22,8 C 51 % 1013,1 hPa 0,0 l/m 1,8 km/h (1 Bft) N-NW 338 0 min 0,000 mm 0,0 UV-I 59 W/m 12,1 C 22,8 C 4,0 km/h (1 Bft) 0,00 %
01.08.2015 19:17 22,7 C 51 % 1013,1 hPa 0,0 l/m 1,8 km/h (1 Bft) N 349 0 min 0,000 mm 0,0 UV-I 53 W/m 12,0 C 22,7 C 4,0 km/h (1 Bft) 0,00 %
01.08.2015 19:22 22,6 C 51 % 1013,1 hPa 0,0 l/m 0,0 km/h (0 Bft) NO 56 0 min 0,000 mm 0,0 UV-I 49 W/m 11,9 C 22,6 C 0,0 km/h (0 Bft) 0,00 %
01.08.2015 19:27 22,5 C 51 % 1013,0 hPa 0,0 l/m 0,7 km/h (0 Bft) N-NW 332 0 min 0,000 mm 0,0 UV-I 51 W/m 11,8 C 22,5 C 4,0 km/h (1 Bft) 0,00 %
01.08.2015 19:32 22,5 C 52 % 1013,0 hPa 0,0 l/m 0,0 km/h (0 Bft) O-NO 59 0 min 0,000 mm 0,0 UV-I 53 W/m 12,1 C 22,5 C 0,0 km/h (0 Bft) 0,00 %
01.08.2015 19:37 22,3 C 52 % 1013,1 hPa 0,0 l/m 0,0 km/h (0 Bft) W-NW 302 0 min 0,000 mm 0,0 UV-I 50 W/m 12,0 C 22,3 C 0,0 km/h (0 Bft) 0,00 %
01.08.2015 19:42 22,2 C 52 % 1013,0 hPa 0,0 l/m 5,4 km/h (1 Bft) W-SW 252 0 min 0,000 mm 0,0 UV-I 41 W/m 11,9 C 22,2 C 7,9 km/h (2 Bft) 0,00 %
01.08.2015 19:47 22,1 C 52 % 1013,1 hPa 0,0 l/m 0,0 km/h (0 Bft) NO 39 0 min 0,000 mm 0,0 UV-I 33 W/m 11,8 C 22,1 C 0,0 km/h (0 Bft) 0,00 %
01.08.2015 19:52 22,1 C 52 % 1013,1 hPa 0,0 l/m 4,7 km/h (1 Bft) W-NW 298 0 min 0,000 mm 0,0 UV-I 28 W/m 11,8 C 22,1 C 7,9 km/h (2 Bft) 0,00 %
01.08.2015 19:57 22,0 C 52 % 1013,1 hPa 0,0 l/m 0,0 km/h (0 Bft) NO 40 0 min 0,000 mm 0,0 UV-I 27 W/m 11,7 C 22,0 C 0,0 km/h (0 Bft) 0,00 %
01.08.2015 20:02 21,9 C 52 % 1013,1 hPa 0,0 l/m 4,3 km/h (1 Bft) W-SW 256 0 min 0,000 mm 0,0 UV-I 25 W/m 11,6 C 21,9 C 7,9 km/h (2 Bft) 0,00 %
01.08.2015 20:07 21,9 C 53 % 1013,1 hPa 0,0 l/m 4,3 km/h (1 Bft) W-NW 292 0 min 0,000 mm 0,0 UV-I 20 W/m 11,9 C 21,9 C 7,9 km/h (2 Bft) 0,00 %
01.08.2015 20:12 21,8 C 53 % 1013,0 hPa 0,0 l/m 0,0 km/h (0 Bft) N-NO 33 0 min 0,000 mm 0,0 UV-I 11 W/m 11,8 C 21,8 C 0,0 km/h (0 Bft) 0,00 %
01.08.2015 20:17 21,7 C 54 % 1013,2 hPa 0,0 l/m 0,0 km/h (0 Bft) NO 53 0 min 0,000 mm 0,0 UV-I 6 W/m 12,0 C 21,7 C 0,0 km/h (0 Bft) 0,00 %
01.08.2015 20:22 21,5 C 54 % 1013,2 hPa 0,0 l/m 1,4 km/h (1 Bft) N-NW 337 0 min 0,000 mm 0,0 UV-I 1 W/m 11,8 C 21,5 C 4,0 km/h (1 Bft) 0,00 %
01.08.2015 20:27 21,4 C 54 % 1013,1 hPa 0,0 l/m 0,0 km/h (0 Bft) W-NW 284 0 min 0,000 mm 0,0 UV-I 0 W/m 11,7 C 21,4 C 0,0 km/h (0 Bft) 0,00 %
01.08.2015 20:32 21,3 C 54 % 1013,3 hPa 0,0 l/m 0,0 km/h (0 Bft) N-NW 340 0 min 0,000 mm 0,0 UV-I 0 W/m 11,6 C 21,3 C 0,0 km/h (0 Bft) 0,00 %
01.08.2015 20:37 21,2 C 55 % 1013,4 hPa 0,0 l/m 0,4 km/h (0 Bft) N-NW 338 0 min 0,000 mm 0,0 UV-I 0 W/m 11,8 C 21,2 C 4,0 km/h (1 Bft) 0,00 %
01.08.2015 20:42 21,1 C 55 % 1013,5 hPa 0,0 l/m 3,2 km/h (1 Bft) NW 307 0 min 0,000 mm 0,0 UV-I 0 W/m 11,7 C 21,1 C 4,0 km/h (1 Bft) 0,00 %
01.08.2015 20:47 21,0 C 56 % 1013,6 hPa 0,0 l/m 1,8 km/h (1 Bft) SW 236 0 min 0,000 mm 0,0 UV-I 0 W/m 11,9 C 21,0 C 4,0 km/h (1 Bft) 0,00 %
01.08.2015 20:52 20,9 C 56 % 1013,5 hPa 0,0 l/m 4,3 km/h (1 Bft) NW 304 0 min 0,000 mm 0,0 UV-I 0 W/m 11,8 C 20,9 C 7,9 km/h (2 Bft) 0,00 %
01.08.2015 20:57 20,8 C 56 % 1013,6 hPa 0,0 l/m 0,0 km/h (0 Bft) NO 36 0 min 0,000 mm 0,0 UV-I 0 W/m 11,7 C 20,8 C 0,0 km/h (0 Bft) 0,00 %
01.08.2015 21:02 20,7 C 57 % 1013,7 hPa 0,0 l/m 0,0 km/h (0 Bft) NO 36 0 min 0,000 mm 0,0 UV-I 0 W/m 11,9 C 20,7 C 0,0 km/h (0 Bft) 0,00 %
01.08.2015 21:07 20,6 C 56 % 1013,8 hPa 0,0 l/m 5,8 km/h (2 Bft) W-SW 255 0 min 0,000 mm 0,0 UV-I 0 W/m 11,5 C 20,6 C 7,9 km/h (2 Bft) 0,00 %
01.08.2015 21:12 20,5 C 57 % 1014,1 hPa 0,0 l/m 0,0 km/h (0 Bft) N-NW 343 0 min 0,000 mm 0,0 UV-I 0 W/m 11,7 C 20,5 C 0,0 km/h (0 Bft) 0,00 %
01.08.2015 21:17 20,4 C 57 % 1014,2 hPa 0,0 l/m 0,0 km/h (0 Bft) N 352 0 min 0,000 mm 0,0 UV-I 0 W/m 11,6 C 20,4 C 0,0 km/h (0 Bft) 0,00 %
01.08.2015 21:22 20,4 C 58 % 1014,1 hPa 0,0 l/m 0,7 km/h (0 Bft) W 279 0 min 0,000 mm 0,0 UV-I 0 W/m 11,9 C 20,4 C 4,0 km/h (1 Bft) 0,00 %
01.08.2015 21:27 20,3 C 57 % 1014,2 hPa 0,0 l/m 5,8 km/h (2 Bft) W-NW 300 0 min 0,000 mm 0,0 UV-I 0 W/m 11,5 C 20,3 C 7,9 km/h (2 Bft) 0,00 %
01.08.2015 21:32 20,3 C 57 % 1014,2 hPa 0,0 l/m 2,2 km/h (1 Bft) NW 317 0 min 0,000 mm 0,0 UV-I 0 W/m 11,5 C 20,3 C 4,0 km/h (1 Bft) 0,00 %
01.08.2015 21:37 20,2 C 57 % 1014,2 hPa 0,0 l/m 0,4 km/h (0 Bft) W-SW 256 0 min 0,000 mm 0,0 UV-I 0 W/m 11,4 C 20,2 C 4,0 km/h (1 Bft) 0,00 %
01.08.2015 21:42 20,2 C 57 % 1014,3 hPa 0,0 l/m 5,8 km/h (2 Bft) W 265 0 min 0,000 mm 0,0 UV-I 0 W/m 11,4 C 20,2 C 7,9 km/h (2 Bft) 0,00 %
01.08.2015 21:47 20,2 C 57 % 1014,2 hPa 0,0 l/m 0,7 km/h (0 Bft) O 98 0 min 0,000 mm 0,0 UV-I 0 W/m 11,4 C 20,2 C 4,0 km/h (1 Bft) 0,00 %
01.08.2015 21:52 20,1 C 58 % 1014,5 hPa 0,0 l/m 0,0 km/h (0 Bft) O-NO 73 0 min 0,000 mm 0,0 UV-I 0 W/m 11,6 C 20,1 C 0,0 km/h (0 Bft) 0,00 %
01.08.2015 21:57 20,0 C 57 % 1014,5 hPa 0,0 l/m 3,2 km/h (1 Bft) NW 325 0 min 0,000 mm 0,0 UV-I 0 W/m 11,2 C 20,0 C 4,0 km/h (1 Bft) 0,00 %
01.08.2015 22:02 20,0 C 58 % 1014,7 hPa 0,0 l/m 0,0 km/h (0 Bft) S 169 0 min 0,000 mm 0,0 UV-I 0 W/m 11,5 C 20,0 C 0,0 km/h (0 Bft) 0,00 %
01.08.2015 22:07 20,0 C 58 % 1014,5 hPa 0,0 l/m 5,4 km/h (1 Bft) W 265 0 min 0,000 mm 0,0 UV-I 0 W/m 11,5 C 20,0 C 7,9 km/h (2 Bft) 0,00 %
01.08.2015 22:12 19,9 C 59 % 1014,5 hPa 0,0 l/m 0,7 km/h (0 Bft) N 353 0 min 0,000 mm 0,0 UV-I 0 W/m 11,6 C 19,9 C 4,0 km/h (1 Bft) 0,00 %
01.08.2015 22:17 19,8 C 59 % 1014,5 hPa 0,0 l/m 0,7 km/h (0 Bft) N-NW 342 0 min 0,000 mm 0,0 UV-I 0 W/m 11,6 C 19,8 C 4,0 km/h (1 Bft) 0,00 %
01.08.2015 22:22 19,8 C 59 % 1014,5 hPa 0,0 l/m 1,4 km/h (1 Bft) NW 321 0 min 0,000 mm 0,0 UV-I 0 W/m 11,6 C 19,8 C 4,0 km/h (1 Bft) 0,00 %
01.08.2015 22:27 19,7 C 60 % 1015,1 hPa 0,0 l/m 0,0 km/h (0 Bft) NW 314 0 min 0,000 mm 0,0 UV-I 0 W/m 11,7 C 19,7 C 0,0 km/h (0 Bft) 0,00 %
01.08.2015 22:32 19,6 C 60 % 1014,8 hPa 0,0 l/m 5,8 km/h (2 Bft) W-SW 256 0 min 0,000 mm 0,0 UV-I 0 W/m 11,6 C 19,6 C 11,9 km/h (2 Bft) 0,00 %
01.08.2015 22:37 19,6 C 60 % 1014,9 hPa 0,0 l/m 0,0 km/h (0 Bft) NO 51 0 min 0,000 mm 0,0 UV-I 0 W/m 11,6 C 19,6 C 0,0 km/h (0 Bft) 0,00 %
01.08.2015 22:42 19,5 C 60 % 1014,9 hPa 0,0 l/m 6,5 km/h (2 Bft) W-NW 293 0 min 0,000 mm 0,0 UV-I 0 W/m 11,5 C 19,5 C 7,9 km/h (2 Bft) 0,00 %
01.08.2015 22:47 19,4 C 60 % 1015,0 hPa 0,0 l/m 0,0 km/h (0 Bft) N 3 0 min 0,000 mm 0,0 UV-I 0 W/m 11,4 C 19,4 C 0,0 km/h (0 Bft) 0,00 %
01.08.2015 22:52 19,4 C 61 % 1015,0 hPa 0,0 l/m 2,9 km/h (1 Bft) W 274 0 min 0,000 mm 0,0 UV-I 0 W/m 11,7 C 19,4 C 4,0 km/h (1 Bft) 0,00 %
01.08.2015 22:57 19,3 C 61 % 1015,0 hPa 0,0 l/m 0,0 km/h (0 Bft) NO 51 0 min 0,000 mm 0,0 UV-I 0 W/m 11,6 C 19,3 C 0,0 km/h (0 Bft) 0,00 %
01.08.2015 23:02 19,3 C 60 % 1015,0 hPa 0,0 l/m 4,0 km/h (1 Bft) NW 305 0 min 0,000 mm 0,0 UV-I 0 W/m 11,3 C 19,3 C 7,9 km/h (2 Bft) 0,00 %
01.08.2015 23:07 19,3 C 60 % 1015,0 hPa 0,0 l/m 4,3 km/h (1 Bft) N-NW 343 0 min 0,000 mm 0,0 UV-I 0 W/m 11,3 C 19,3 C 7,9 km/h (2 Bft) 0,00 %
01.08.2015 23:12 19,2 C 61 % 1015,2 hPa 0,0 l/m 0,0 km/h (0 Bft) N-NW 341 0 min 0,000 mm 0,0 UV-I 0 W/m 11,5 C 19,2 C 0,0 km/h (0 Bft) 0,00 %
01.08.2015 23:17 19,2 C 61 % 1015,2 hPa 0,0 l/m 2,2 km/h (1 Bft) W-NW 299 0 min 0,000 mm 0,0 UV-I 0 W/m 11,5 C 19,2 C 4,0 km/h (1 Bft) 0,00 %
01.08.2015 23:22 19,1 C 61 % 1015,3 hPa 0,0 l/m 4,7 km/h (1 Bft) W-NW 290 0 min 0,000 mm 0,0 UV-I 0 W/m 11,4 C 19,1 C 7,9 km/h (2 Bft) 0,00 %
01.08.2015 23:27 19,1 C 61 % 1015,3 hPa 0,0 l/m 1,4 km/h (1 Bft) N-NO 23 0 min 0,000 mm 0,0 UV-I 0 W/m 11,4 C 19,1 C 4,0 km/h (1 Bft) 0,00 %
01.08.2015 23:32 19,0 C 61 % 1015,5 hPa 0,0 l/m 0,0 km/h (0 Bft) W 268 0 min 0,000 mm 0,0 UV-I 0 W/m 11,3 C 19,0 C 0,0 km/h (0 Bft) 0,00 %
01.08.2015 23:37 19,0 C 61 % 1015,4 hPa 0,0 l/m 4,7 km/h (1 Bft) W-SW 256 0 min 0,000 mm 0,0 UV-I 0 W/m 11,3 C 19,0 C 7,9 km/h (2 Bft) 0,00 %
01.08.2015 23:42 19,0 C 61 % 1015,2 hPa 0,0 l/m 5,4 km/h (1 Bft) W-SW 256 0 min 0,000 mm 0,0 UV-I 0 W/m 11,3 C 19,0 C 7,9 km/h (2 Bft) 0,00 %
01.08.2015 23:47 19,0 C 61 % 1015,5 hPa 0,0 l/m 1,4 km/h (1 Bft) N 351 0 min 0,000 mm 0,0 UV-I 0 W/m 11,3 C 19,0 C 4,0 km/h (1 Bft) 0,00 %
01.08.2015 23:52 19,0 C 61 % 1015,5 hPa 0,0 l/m 4,0 km/h (1 Bft) W-SW 256 0 min 0,000 mm 0,0 UV-I 0 W/m 11,3 C 19,0 C 7,9 km/h (2 Bft) 0,00 %
01.08.2015 23:57 18,9 C 63 % 1015,9 hPa 0,0 l/m 0,0 km/h (0 Bft) N-NO 25 0 min 0,000 mm 0,0 UV-I 0 W/m 11,7 C 18,9 C 0,0 km/h (0 Bft) 0,00 %
_ Min-Zeit 05:56 16:12 17:52 - 00:01 - - - - - - 00:11 05:56 00:01 00:01
Minimum _ 10,9 C 23 % 1012,5 hPa - 0,0 km/h (0 Bft) - - - - - - 6,6 C 10,9 C 0,0 km/h (0 Bft) 0,00 %
_ Max-Zeit 16:17 05:56 23:57 00:01 09:32 - - 08:47 00:01 11:47 13:52 19:32 16:17 09:32 00:01
Maximum _ 30,5 C 80 % 1015,9 hPa 0,0 l/m 9,7 km/h
S-SO (2 Bft)
- - 6 min 0,000 mm 5,0 UV-I 1258 W/m 12,1 C 30,5 C 15,8 km/h
S-SO (3 Bft)
0,00 %
Durchschnitt _ 20,6 C 51 % 1013,5 hPa #0,0 l/m 1,1 km/h (1 Bft) O-SO - #11:21 h #0,000 mm 2,6 UV-I 466 W/m 9,1 C 20,6 C 2,3 km/h (1 Bft) 0,00 %